{"data":{"norad_id":69126,"epoch":"2026-09-19T23:44:58.240608Z","epoch_age_seconds":67278,"freshness":"FRESH","line1":"1 69126U 26110C   26262.98956297  .00013248  00000+0  41194-3 0  9996","line2":"2 69126  97.2863  97.9929 0001078  75.8934 284.2428 15.33448154 20132","mean_motion":15.33448154,"eccentricity":0.0001078,"inclination_deg":97.2863,"raan_deg":97.9929,"arg_perigee_deg":75.8934,"mean_anomaly_deg":284.2428,"bstar":0.00041194,"rev_number":2013,"period_min":93.906011510318,"perigee_km":464.79604269804,"apogee_km":466.27153812045,"semimajor_km":6843.6707904092,"source":"CELESTRAK","updated_at":"2026-09-20T09:00:44.063795Z"}}